When you browse on this site, cookies collect data to enhance your experience and personalize the content and advertising you see.
Visit our Privacy Policy to learn more. By continuing to use the site, you agree to this use of cookies and data.
  • In United Kingdom
  • List of Countries
  • For 7 days
  • Water Temperature
  • Satellite Maps
  • Weather Map
  • Weather Widgets
  • user-avatar
    Login

    Hourly Weather Sekondi

    Today, 19 November, Monday

    Time Temperature Precipitation Wind Pressure Humidity
    00:00 +27°C° 0 mm 1 mps 757 mmHg 93%
    01:00 +27°C° 0.4 mm 1 mps 757 mmHg 94%
    02:00 +26°C° 0.4 mm 1 mps 756 mmHg 94%
    03:00 +26°C° 0.4 mm 1 mps 756 mmHg 94%
    04:00 +26°C° 0.1 mm 1 mps 756 mmHg 94%
    05:00 +26°C° 0.1 mm 1 mps 757 mmHg 94%
    06:00 +26°C° 0.1 mm 1 mps 757 mmHg 94%
    07:00 +27°C° 0 mm 1 mps 757 mmHg 88%
    08:00 +29°C° 0 mm 2 mps 757 mmHg 81%
    09:00 +31°C° 0 mm 2 mps 758 mmHg 75%
    10:00 +32°C° 0 mm 2 mps 757 mmHg 67%
    11:00 +35°C° 0 mm 2 mps 757 mmHg 60%
    12:00 +37°C° 0 mm 2 mps 757 mmHg 52%
    13:00 +36°C° 0.2 mm 2 mps 756 mmHg 56%
    14:00 +35°C° 0.2 mm 3 mps 756 mmHg 60%
    15:00 +34°C° 0.2 mm 3 mps 755 mmHg 63%
    16:00 +33°C° 0 mm 3 mps 755 mmHg 69%
    17:00 +31°C° 0 mm 2 mps 755 mmHg 74%
    18:00 +29°C° 0 mm 2 mps 756 mmHg 79%
    19:00 +29°C° 0 mm 2 mps 756 mmHg 81%
    20:00 +28°C° 0 mm 2 mps 757 mmHg 83%
    21:00 +28°C° 0 mm 2 mps 757 mmHg 85%
    22:00 +28°C° 0 mm 2 mps 757 mmHg 86%
    23:00 +28°C° 0 mm 2 mps 757 mmHg 87%

    Tomorrow, 20 November, Tuesday

    Time Temperature Precipitation Wind Pressure Humidity
    00:00 +27°C° 0 mm 3 mps 757 mmHg 88%
    01:00 +27°C° 0 mm 3 mps 757 mmHg 89%
    02:00 +27°C° 0 mm 3 mps 757 mmHg 90%
    03:00 +27°C° 0 mm 3 mps 756 mmHg 91%
    04:00 +27°C° 0 mm 3 mps 756 mmHg 91%
    05:00 +27°C° 0 mm 3 mps 757 mmHg 91%
    06:00 +27°C° 0 mm 3 mps 757 mmHg 92%
    07:00 +28°C° 0 mm 3 mps 757 mmHg 86%
    08:00 +30°C° 0 mm 3 mps 758 mmHg 80%
    09:00 +31°C° 0 mm 3 mps 758 mmHg 74%
    10:00 +31°C° 0 mm 3 mps 758 mmHg 72%
    11:00 +33°C° 0 mm 3 mps 758 mmHg 70%
    12:00 +33°C° 0 mm 3 mps 758 mmHg 68%
    13:00 +34°C° 0 mm 3 mps 757 mmHg 66%
    14:00 +34°C° 0 mm 3 mps 756 mmHg 64%
    15:00 +34°C° 0 mm 4 mps 756 mmHg 63%
    16:00 +33°C° 0.1 mm 4 mps 756 mmHg 70%
    17:00 +30°C° 0.1 mm 4 mps 756 mmHg 77%
    18:00 +29°C° 0.1 mm 4 mps 757 mmHg 84%
    19:00 +29°C° 0 mm 3 mps 757 mmHg 86%
    20:00 +28°C° 0 mm 3 mps 758 mmHg 88%
    21:00 +28°C° 0 mm 3 mps 758 mmHg 90%
    22:00 +28°C° 0 mm 3 mps 758 mmHg 90%
    23:00 +27°C° 0 mm 3 mps 758 mmHg 91%

    Day after tomorrow, 21 November, Wednesday

    Time Temperature Precipitation Wind Pressure Humidity
    00:00 +27°C° 0 mm 3 mps 758 mmHg 91%
    01:00 +27°C° 0.1 mm 3 mps 757 mmHg 92%
    02:00 +27°C° 0.1 mm 3 mps 757 mmHg 93%
    03:00 +27°C° 0.1 mm 3 mps 756 mmHg 93%
    04:00 +27°C° 0 mm 3 mps 757 mmHg 94%
    05:00 +27°C° 0 mm 3 mps 757 mmHg 94%
    06:00 +27°C° 0 mm 3 mps 757 mmHg 94%
    07:00 +28°C° 0.1 mm 3 mps 758 mmHg 88%
    08:00 +30°C° 0.1 mm 3 mps 758 mmHg 82%
    09:00 +31°C° 0.1 mm 3 mps 759 mmHg 76%
    10:00 +33°C° 0 mm 4 mps 758 mmHg 69%
    11:00 +35°C° 0 mm 4 mps 758 mmHg 62%
    12:00 +36°C° 0 mm 4 mps 757 mmHg 55%
    13:00 +35°C° 0.2 mm 4 mps 757 mmHg 60%
    14:00 +34°C° 0.2 mm 5 mps 756 mmHg 65%
    15:00 +34°C° 0.2 mm 5 mps 756 mmHg 70%
    16:00 +32°C° 0.5 mm 4 mps 756 mmHg 76%
    17:00 +30°C° 0.5 mm 4 mps 756 mmHg 81%
    18:00 +29°C° 0.5 mm 3 mps 756 mmHg 87%
    19:00 +28°C° 0 mm 3 mps 757 mmHg 89%
    20:00 +28°C° 0 mm 3 mps 758 mmHg 90%
    21:00 +28°C° 0 mm 3 mps 758 mmHg 92%
    22:00 +28°C° 0.1 mm 3 mps 758 mmHg 92%
    23:00 +28°C° 0.1 mm 4 mps 758 mmHg 93%

    22 November, Thursday

    Time Temperature Precipitation Wind Pressure Humidity
    00:00 +27°C° 0.1 mm 4 mps 758 mmHg 93%
    01:00 +27°C° 0 mm 4 mps 757 mmHg 94%
    02:00 +27°C° 0 mm 4 mps 757 mmHg 94%
    03:00 +27°C° 0 mm 4 mps 756 mmHg 94%
    04:00 +27°C° 0 mm 4 mps 756 mmHg 94%
    05:00 +27°C° 0 mm 4 mps 757 mmHg 94%
    06:00 +27°C° 0 mm 4 mps 757 mmHg 94%
    07:00 +28°C° 0 mm 4 mps 757 mmHg 88%
    08:00 +30°C° 0 mm 4 mps 758 mmHg 82%
    09:00 +32°C° 0 mm 4 mps 758 mmHg 76%
    10:00 +32°C° 0.7 mm 4 mps 758 mmHg 75%
    11:00 +33°C° 0.7 mm 3 mps 758 mmHg 74%
    12:00 +33°C° 0.7 mm 3 mps 757 mmHg 73%
    13:00 +33°C° 0.6 mm 3 mps 757 mmHg 73%
    14:00 +33°C° 0.6 mm 4 mps 756 mmHg 73%
    15:00 +33°C° 0.6 mm 4 mps 755 mmHg 73%
    16:00 +31°C° 0.1 mm 3 mps 756 mmHg 78%
    17:00 +30°C° 0.1 mm 3 mps 756 mmHg 82%
    18:00 +29°C° 0.1 mm 3 mps 756 mmHg 87%
    19:00 +28°C° 0 mm 2 mps 757 mmHg 88%
    20:00 +28°C° 0 mm 2 mps 757 mmHg 90%
    21:00 +28°C° 0 mm 2 mps 758 mmHg 92%
    22:00 +27°C° 0 mm 2 mps 758 mmHg 92%
    23:00 +27°C° 0 mm 2 mps 757 mmHg 93%

    23 November, Friday

    Time Temperature Precipitation Wind Pressure Humidity
    00:00 +27°C° 0 mm 2 mps 757 mmHg 94%
    01:00 +27°C° 0 mm 2 mps 757 mmHg 95%
    02:00 +27°C° 0 mm 2 mps 756 mmHg 95%
    03:00 +26°C° 0 mm 2 mps 756 mmHg 96%
    04:00 +26°C° 0 mm 2 mps 756 mmHg 96%
    05:00 +26°C° 0 mm 2 mps 756 mmHg 96%
    06:00 +26°C° 0 mm 2 mps 757 mmHg 96%
    07:00 +28°C° 0 mm 2 mps 757 mmHg 88%
    08:00 +30°C° 0 mm 2 mps 757 mmHg 81%
    09:00 +31°C° 0 mm 2 mps 758 mmHg 73%
    10:00 +32°C° 0 mm 2 mps 757 mmHg 71%
    11:00 +32°C° 0 mm 2 mps 757 mmHg 69%
    12:00 +34°C° 0 mm 2 mps 757 mmHg 66%
    13:00 +33°C° 0.6 mm 3 mps 756 mmHg 69%
    14:00 +33°C° 0.6 mm 3 mps 755 mmHg 71%
    15:00 +33°C° 0.6 mm 3 mps 755 mmHg 73%
    16:00 +31°C° 0.2 mm 3 mps 755 mmHg 78%
    17:00 +30°C° 0.2 mm 3 mps 755 mmHg 82%
    18:00 +29°C° 0.2 mm 2 mps 756 mmHg 86%
    19:00 +28°C° 0 mm 2 mps 756 mmHg 87%
    20:00 +28°C° 0 mm 2 mps 757 mmHg 89%
    21:00 +28°C° 0 mm 2 mps 757 mmHg 90%
    22:00 +27°C° 0 mm 2 mps 757 mmHg 91%
    23:00 +27°C° 0 mm 2 mps 757 mmHg 92%

    24 November, Saturday

    Time Temperature Precipitation Wind Pressure Humidity
    00:00 +27°C° 0 mm 2 mps 757 mmHg 92%
    01:00 +27°C° 0 mm 2 mps 756 mmHg 93%
    02:00 +27°C° 0 mm 2 mps 756 mmHg 93%
    03:00 +27°C° 0 mm 2 mps 756 mmHg 94%
    04:00 +26°C° 0.1 mm 2 mps 756 mmHg 94%
    05:00 +26°C° 0.1 mm 2 mps 756 mmHg 94%
    06:00 +26°C° 0.1 mm 1 mps 757 mmHg 94%
    07:00 +28°C° 0 mm 1 mps 757 mmHg 86%
    08:00 +30°C° 0 mm 2 mps 758 mmHg 78%
    09:00 +32°C° 0 mm 2 mps 758 mmHg 69%
    10:00 +34°C° 0 mm 2 mps 757 mmHg 63%
    11:00 +36°C° 0 mm 2 mps 757 mmHg 56%
    12:00 +37°C° 0 mm 2 mps 756 mmHg 50%
    13:00 +36°C° 0 mm 3 mps 756 mmHg 51%
    14:00 +36°C° 0 mm 3 mps 755 mmHg 52%
    15:00 +36°C° 0 mm 3 mps 755 mmHg 53%
    16:00 +34°C° 0 mm 3 mps 755 mmHg 60%
    17:00 +31°C° 0 mm 3 mps 755 mmHg 67%
    18:00 +30°C° 0 mm 3 mps 756 mmHg 73%
    19:00 +29°C° 0 mm 3 mps 756 mmHg 76%
    20:00 +29°C° 0 mm 3 mps 757 mmHg 79%
    21:00 +28°C° 0 mm 3 mps 757 mmHg 82%
    22:00 +28°C° 0 mm 3 mps 757 mmHg 83%
    23:00 +28°C° 0 mm 3 mps 756 mmHg 84%
    Show more